www.pogodaiklimat.ru

Погода и климат >> Архив погоды >> Россия >> Самарская область >> Самара


АРХИВ ПОГОДЫ в Самаре

Время (UTC), дата Ветер
(напр.,м/с)
 
Видим.   Явления Облачность Т
(С)
Тd
(С)
f
(%)
Тe
(С)
Тes
(С)
Комфортность P
(гПа)
Po
(гПа)
Тmin
(С)
Tmax
(С)
R
(мм)
R24
(мм)
S
(см)
21 10.07 штиль 0 10 км ясно +19.8 +14.9 73 +22 +22 комфорт 1011.0 994.8
00 11.07 З 1 10 км 4/0
[Ac trans]
+18.3 +15.6 84 +20 +20 1011.3 995.0
03 11.07 З 2 10 км ясно +20.0 +15.6 76 +23 +26 комфорт 1011.3 995.1 +16.9
06 11.07 З 2 10 км 6/6 300 м
[Cb cap]
+23.7 +16.1 62 +27 +32 жарко 1011.0 995.1
09 11.07 З 3 10 км 6/6 300 м
[Cb cap]
+26.3 +14.6 49 +29 +34 жарко 1010.2 994.3
12 11.07 З 3 10 км 6/6 300 м
[Cb cap]
+27.3 +14.2 45 +30 +33 душно 1009.3 993.5
15 11.07 СЗ 2 10 км {ливн. осадки} 8/5 300 м
[Cb cap Ci fib]
+25.3 +16.3 57 +29 +29 душно 1009.7 993.8 +27.9 0.0
18 11.07 З 1 10 км {ливн. осадки} 6/6 600 м
[Sc]
+21.9 +17.0 74 +26 +26 душно 1010.6 994.6
21 11.07 СЗ 1 10 км ясно +19.8 +16.3 80 +23 +23 комфорт 1010.6 994.4
00 12.07 С 1 10 км ясно +18.1 +15.4 84 +19 +19 1010.8 994.5
03 12.07 СЗ 1 10 км 8/0
[Ci fib]
+19.7 +15.5 77 +23 +26 комфорт 1011.5 995.3 +17.6
06 12.07 З 2 10 км 10/0
[Ci fib]
+22.5 +15.1 63 +26 +36 жарко 1011.2 995.1
09 12.07 З 2 10 км 9/4 600 м
[Sc diur, vesp Ac trans Ci fib]
+24.7 +13.4 49 +27 +32 жарко 1010.3 994.4
12 12.07 ЮЗ 2 10 км 3/3 600 м
[Sc diur, vesp Ac trans Ci fib]
+26.5 +14.8 49 +29 +36 жарко 1009.4 993.6
15 12.07 СЗ 2 10 км 8/0
[Ac trans]
+26.3 +13.0 44 +28 +29 жарко 1008.9 993.1 +27.3
18 12.07 С 1 10 км 3/0
[Ac trans]
+23.1 +13.4 54 +26 +26 жарко 1009.2 993.2
21 12.07 СВ 1 10 км 5/0
[Ac trans]
+20.9 +14.7 68 +25 +25 комфорт 1009.4 993.2
00 13.07 штиль 0 10 км 3/0
[Ac trans]
+18.0 +14.5 80 +18 +18 1009.3 993.0
03 13.07 С 1 10 км 3/0
[Ci fib]
+20.2 +15.1 72 +24 +27 комфорт 1009.5 993.3 +17.2
06 13.07 СЗ 2 10 км 3/3 600 м
[Cu med, cong]
+23.4 +14.1 56 +27 +35 душно 1009.3 993.3
09 13.07 СЗ 2 10 км 6/6 600 м
[Cu med, cong]
+26.0 +12.9 44 +28 +34 жарко 1008.3 992.4
12 13.07 СЗ 1 10 км слабый ливневой дождь 8/8 300 м
[Cb calv]
+25.1 +14.2 51 +28 +30 жарко 1008.1 992.2
15 13.07 З 1 10 км {ливн. осадки} 3/3 600 м
[Sc diur, vesp]
+26.2 +13.5 45 +28 +29 жарко 1007.1 991.3 +26.6 0.0
18 13.07 штиль 0 10 км {ливн. осадки} 3/0
[Ac trans]
+21.0 +14.7 67 +24 +24 комфорт 1007.9 991.8
21 13.07 штиль 0 10 км ясно +21.1 +14.4 66 +24 +24 комфорт 1007.6 991.5
00 14.07 СЗ 1 10 км ясно +19.1 +15.7 81 +22 +22 комфорт 1007.6 991.4
03 14.07 СЗ 1 10 км ясно +19.9 +15.9 78 +23 +27 комфорт 1007.9 991.8 +18.5 0.0
06 14.07 СЗ 2 10 км 3/3 600 м
[Cu hum]
+24.1 +15.6 59 +27 +35 жарко 1007.7 991.8
09 14.07 СЗ 3 10 км 4/4 600 м
[Sc diur, vesp]
+26.5 +15.7 51 +30 +38 душно 1007.0 991.3
12 14.07 В 2 10 км 6/6 600 м
[Cb cap]
+28.0 +15.0 45 +31 +34 душно 1006.5 990.8
15 14.07 С 1 10 км {ливн. осадки} 6/5 600 м
[Cb cap Ci fib]
+25.7 +16.6 57 +29 +30 душно 1006.3 990.5 +28.9 6
18 14.07 С 1 10 км {ливн. осадки} 3/0
[Ac trans Ci fib]
+23.9 +16.4 63 +27 +27 жарко 1007.0 991.1
21 14.07 С 1 10 км ясно +22.7 +16.4 68 +27 +27 душно 1006.8 990.8
00 15.07 штиль 0 10 км ясно +18.8 +16.2 85 +20 +20 1007.6 991.4
03 15.07 В 2 10 км ясно +22.3 +16.8 71 +27 +29 душно 1007.7 991.7 +18.1
06 15.07 В 2 10 км ясно +26.7 +17.2 56 +31 +42 душно 1007.5 991.8
09 15.07 СВ 2 10 км 6/6 600 м
[Cu med, cong]
+27.7 +14.9 46 +30 +37 жарко 1007.2 991.5
12 15.07 СВ 1 10 км 8/6 600 м
[Cu med, cong Ci fib]
+30.7 +12.1 32 +31 +35 жарко 1006.6 991.0
15 15.07 СВ 1 10 км 6/0
[Ac trans Ci fib]
+29.8 +13.1 36 +31 +32 жарко 1006.4 990.8 +31.0
18 15.07 В 1 10 км 4/0
[Ac trans]
+26.9 +15.5 50 +30 +30 душно 1007.3 991.5
21 15.07 В 3 10 км ясно +24.3 +15.4 58 +27 +27 жарко 1007.5 991.6
00 16.07 В 3 10 км 3/0
[Ci fib]
+23.0 +15.4 62 +27 +27 душно 1007.9 991.9
03 16.07 В 3 10 км 10/0
[Ci fib]
+23.3 +16.5 66 +28 +30 душно 1008.4 992.4 +22.6
06 16.07 В 2 10 км 4/0
[Ci fib]
+27.4 +17.4 54 +31 +42 душно 1008.1 992.4
09 16.07 В 2 10 км 8/3 600 м
[Cu hum Ci fib]
+31.4 +15.8 39 +34 +44 душно 1007.2 991.7
12 16.07 ЮВ 2 10 км гроза, ливневой дождь 10/8 600 м
[Cb calv Ac trans]
+28.3 +15.2 45 +31 +32 душно 1007.2 991.5
15 16.07 В 2 10 км {гроза, ливн. осадки} 10/4 600 м
[Sc Ac trans Ci fib]
+29.2 +15.4 43 +32 +32 душно 1005.9 990.3 +32.6 0.0
18 16.07 В 3 10 км {гроза, ливн. осадки} 8/8 600 м
[Sc]
+27.7 +13.8 42 +30 +30 жарко 1006.5 990.8
21 16.07 В 2 10 км 10/8 600 м
[Sc Ci fib]
+24.6 +12.8 48 +27 +27 жарко 1006.8 990.9
00 17.07 В 3 10 км 10/5 600 м
[Sc Ac trans]
+23.8 +12.3 48 +26 +26 жарко 1006.4 990.5
03 17.07 В 1 10 км слабый ливневой дождь 10/8 300 м
[Cb cap Ac trans]
+21.0 +15.2 69 +25 +26 комфорт 1007.2 991.1 +21.0 0.3
06 17.07 В 1 10 км в посл. час ливневой дождь 10/8 600 м
[Cb calv Ac trans]
+20.0 +16.9 82 +24 +25 комфорт 1006.4 990.2 +19.7
09 17.07 В 4 10 км слабый ливневой дождь 10/10 600 м
[Cb calv]
+19.9 +17.6 87 +23 +23 комфорт 1005.9 989.8
12 17.07 В 3
{10}
10 км слабый ливневой дождь 10/10 300 м
[Cb calv]
+19.2 +17.6 90 +21 +21 комфорт 1005.0 988.9
15 17.07 В 4
{11}
10 км {ливн. осадки} 10/10 600 м
[Cb calv]
+19.7 +17.8 89 +22 +22 комфорт 1003.7 987.6 +21.0 7
18 17.07 В 4 10 км в посл. час ливневой дождь 10/10 600 м
[Cb calv]
+20.0 +18.1 89 +23 +23 комфорт 1003.6 987.5

 

Местоположение метеостанции Самара (Самарская область, Россия): широта 53.25 долгота 50.22 высота над уровнем моря 139 м.

В архиве по умолчанию представлена погода в Самаре за последнюю неделю. Архивные данные за месяц целиком и за предыдущие месяцы, начиная с января 2011 года, Вы можете получить, выбрав интересующий диапазон дат из раскрывающегося списка и нажав кнопку "Ввод!".


*Определитесь, кто Вы:
робот инопланетянин человек

Внимание! Время в таблицах - всемирное. Для получения местного времени необходимо прибавить поправку, которая в Самаре равна 4 ч.

Смотрите также архив погоды в соседних городах и на ближайших метеорологических станциях:

Погода в Самаре АМС (Самарская область, Россия) (7 км)
Погода в Самаре-Центр (Самарская область, Россия) (8 км)
Погода в Курумоче (Самарская область, Россия) (28 км)
Погода в Аглосе (Самарская область, Россия) (32 км)
Погода в Чапаевске (Самарская область, Россия) (43 км)
Погода в Безенчуке (Самарская область, Россия) (61 км)
Погода в Тольятти (Самарская область, Россия) (69 км)
Погода в Богатом (Самарская область, Россия) (73 км)
Погода в Кинель-Черкассах (Самарская область, Россия) (94 км)
Погода в Большая Глушица (Самарская область, Россия) (98 км)

Пояснения к столбцам:

Ветер - указаны скорость ветра в м/с - средняя за 10 мин, порывы в срок и между сроками (в фигурных скобках) и направление, откуда дует ветер: С - северный, СВ - северо-восточный, В - восточный, ЮВ - юго-восточный, Ю - южный, ЮЗ - юго-западный, З - западный, СЗ - северо-западный.
Видимость - горизонтальная дальность видимости в метрах или километрах. При видимости от 1 до 10 км при отсутствии осадков обычно наблюдается дымка, при ухудшении видимости до 1 км и менее - туман. В сухую погоду видимость может ухудшаться дымом, пылью или мглою.
Явления - указаны атмосферные явления, наблюдавшиеся в срок или в последний час перед сроком; фигурными скобками обозначены явления, наблюдавшиеся между сроками (за 1-3 часа до срока); квадратными скобками обозначены град или гололедные отложения с указанием их диаметра в мм.
Облачность - указаны через наклонную черту общая и нижняя облачность в баллах и высота нижней границы облаков в метрах; квадратными скобками обозначены формы облаков: Ci - перистые, Cs - перисто-слоистые, Cc - перисто-кучевые, Ac - высококучевые, As - высокослоистые, Sc - слоисто-кучевые, Ns - слоисто-дождевые, Cu - кучевые, Cb - кучево-дождевые. Подробнее классификацию облаков см. в Атласе облаков (PDF).
T - Температура воздуха - температура, измеренная на высоте 2 м над землей.
Td - Температура точки росы - температура, при понижении до которой содержащийся в воздухе водяной пар достигнет насыщения.
f - Относительная влажность воздуха - влажноcть воздуха, измеренная на высоте 2 м над землей.
Te - Эффективная температура - температура, которую ощущает одетый по сезону человек в тени. Характеристика душности погоды. При расчете учитывается влияние влажности воздуха и скорости ветра на теплоощущения человека.
Tes - Эффективная температура на солнце - температура, которую ощущает человек, с поправкой на солнечный нагрев. Характеристика знойности погоды. Зависит от высоты солнца над горизонтом, облачности и скорости ветра. Ночью, в пасмурную погоду, а также при ветре 12 м/с и более поправка равна нулю.
P - Атмосферное давление - приведенное к уровню моря атмосферное давление.
Po - Атмосферное давление - измеренное на уровне метеостанции атмосферное давление.
Tmin - Минимальная температура - минимум температуры воздуха на высоте 2 м над землей.
Tmax - Максимальная температура - максимум температуры воздуха на высоте 2 м над землей.
R - Количество осадков - Количество выпавших осадков за период времени, мм. При наведении курсора мыши на число - период времени, за который выпало указанное количество осадков.
R24 - Количество осадков - Количество выпавших осадков за 24 часа, мм.
S - Снежный покров - Высота снежного покрова, см. При наведении курсора мыши на число - состояние снежного покрова и степень покрытия местности в баллах.